Regional Weather Roundup
Issued by NWS

Home | Current Version | Previous Version | Text Only | Print | Product List | Glossary Off
Versions: 1 2 3 4 5 6 7 8 9 10 11 12 13 14 15 16 17 18 19 20 21 22 23 24 25 26 27 28 29 30 31 32 33 34 35 36 37 38 39 40 41 42 43 44 45 46 47 48 49 50

836
ASUS45 KTFX 211410
RWRMT
MONTANA REGIONAL WEATHER ROUNDUP
NATIONAL WEATHER SERVICE GREAT FALLS MT
700 AM MST SAT JAN 21 2017

NOTE: "FAIR" INDICATES FEW OR NO CLOUDS BELOW 12000 FEET WITH NO
SIGNIFICANT WEATHER AND/OR OBSTRUCTIONS TO VISIBILITY.

MTZ001>007-043-211500-
WEST OF THE DIVIDE

CITY           SKY/WX    TMP DP  RH WIND       PRES   REMARKS
KALISPELL      PTCLDY    14  10  84 NE3       29.38R
MISSOULA       MOCLDY    18  15  88 CALM      29.39R
BUTTE          CLOUDY     7   3  84 SE5       29.32R
MULLAN PASS    CLOUDY    22  20  92 S6        29.26R WCI  14
ANACONDA         N/A     16  10  79 CALM      29.33R
DEER LODGE       N/A     12   9  85 CALM      29.37R
EUREKA           N/A     19  18  93 CALM      29.42R
HAMILTON         N/A     23  16  74 CALM      29.36R
PLAINS           N/A     17  12  80 CALM      29.43R
RONAN            N/A     18  14  84 CALM      29.44R VSB 0
$$

MTZ008-052>055-211500-
SOUTHWEST MONTANA

CITY           SKY/WX    TMP DP  RH WIND       PRES   REMARKS
BOZEMAN        CLOUDY     3   0  87 SE6       29.35R WCI  -8
DILLON         CLOUDY    22  11  62 SW8       29.32R WCI  12
W YELLOWSTONE  FLURRIES  16  14  93 CALM      29.33R
ENNIS          CLOUDY    16  10  79 CALM      29.36R
TWIN BRIDGES     N/A      8   0  70 E2        29.41R
$$

MTZ009-010-012-014-046-048-049-054-211500-
EAST SLOPES AND CENTRAL MONTANA

CITY           SKY/WX    TMP DP  RH WIND       PRES   REMARKS
CUT BANK       CLEAR     14  11  87 W5        29.33R
GREAT FALLS    CLEAR     17  13  84 W5        29.34R
MALMSTROM AFB  CLEAR     19  15  86 SW8       29.36R WCI   9
HELENA         FOG        5   2  87 CALM      29.37R VSB 1/4
AUGUSTA          N/A     16  13  86 NW6       29.31R WCI   8
BOWMANS CRNR     N/A     21  15  77 W5        29.31R
CHOTEAU          N/A     19  14  79 W6        29.35R WCI  11
CONRAD           N/A      8   5  87 SE1       29.41S
POWER            N/A     13  11  93 W7        29.33R WCI   3
RAYNESFORD       N/A     20  14  77 CALM      29.34R
ULM              N/A     17  14  86 MISG      29.35R
$$

MTZ011-013-016-021-045-047-050-051-211500-
NORTH CENTRAL MONTANA

CITY           SKY/WX    TMP DP  RH WIND       PRES   REMARKS
HAVRE          PTCLDY    12  10  92 W5        29.38R
LEWISTOWN      CLEAR     18  12  77 W5        29.33R
CHINOOK          N/A     14  10  85 N3        29.38S
DENTON           N/A     17  14  85 S6        29.31R WCI   9
FORT BENTON      N/A     18  14  86 MISG      29.39R
GEYSER           N/A     26  15  64 SW7       29.33R WCI  18
GRASS RANGE      N/A     24  18  78 W3        29.31R
JUDITH GAP       N/A     22  13  69 SW10      29.32R WCI  11
ROY              N/A     27  21  76 MISG      29.33R
STANFORD         N/A     26  15  63 W9        29.32R WCI  17
WINIFRED         N/A     23  19  83 CALM      29.33R
$$

MTZ017>020-022>027-061-062-211500-
NORTHEAST MONTANA

CITY           SKY/WX    TMP DP  RH WIND       PRES   REMARKS
GLASGOW        FOG       13  11  92 W10       29.35S VSB 1/4 WCI   0
JORDAN           N/A     15  11  83 CALM      29.36R
SIDNEY         CLOUDY    33  25  72 W7        29.33R WCI  27
WOLF POINT     CLOUDY    22  17  81 W9        29.35R WCI  12
PLENTYWOOD       N/A     30  27  86 NW5       29.29R
POPLAR           N/A     23  19  86 W14       29.34R WCI  11
$$

MTZ028>42-056>058-211500-
SOUTHCENTRAL AND SOUTHEAST MONTANA

CITY           SKY/WX    TMP DP  RH WIND       PRES   REMARKS
BAKER          PTCLDY    21  19  92 NW3       29.34S FOG
BILLINGS       PTCLDY    20  19  96 SW15      29.35S WCI   6
LIVINGSTON     CLOUDY    11   5  77 NW13      29.33R WCI  -4
MILES CITY     FOG       19  15  84 S7        29.38R VSB 1/4 WCI  10
BIG TIMBER     CLEAR     16  10  79 CALM      29.36R
EKALAKA          N/A     25  22  88 CALM      29.38R
FORSYTH          N/A     16  14  93 CALM      29.37S VSB 0
HARLOWTON        N/A     14   9  80 W17       29.33S WCI  -3
LAUREL           N/A     17  12  80 W3        29.39R
$$

REGIONAL REPORTS...DAKOTAS

CITY           SKY/WX    TMP DP  RH WIND       PRES   REMARKS
WILLISTON      CLOUDY    26  24  92 CALM      29.31R
MINOT          CLOUDY    28  27  96 S3        29.32R FOG
DICKINSON      CLOUDY    27  23  85 NW9       29.28S WCI  18
BEACH          CLOUDY    28  27  93 W14       29.35S WCI  17
CROSBY         CLOUDY    18  18 100 CALM      29.31S
TIOGA          CLOUDY    14  14 100 E5        29.30S
WATFORD CITY   MOCLDY    28  27  93 S8        29.31S WCI  20
BISMARCK       LGT SNOW  29  27  92 W7        29.34S FOG     WCI  22
GRAND FORKS    CLOUDY    35  32  88 SE6       29.41R WCI  30
FARGO          CLOUDY    38  34  85 E9        29.39S WCI  31
BUFFALO SD       N/A     27  25  92 W9        29.27R WCI  18
RAPID CITY     CLEAR     28  26  92 NW6       29.34S WCI  22
$$

REGIONAL REPORTS...WYOMING/IDAHO/WASHINGTON

CITY           SKY/WX    TMP DP  RH WIND       PRES   REMARKS
GILLETTE       CLOUDY    15  12  88 CALM      29.34S
SHERIDAN       CLOUDY    11   8  88 MISG      29.34S
BUFFALO WY     CLOUDY    25  15  66 W8        29.33S WCI  16
CODY           CLOUDY    17  10  74 CALM      29.33S
YELLOWSTONE LA   N/A      8   6  92 CALM      29.33R
IDAHO FALLS    CLOUDY    25  23  92 CALM      29.34R
SALMON         CLOUDY    14  12  92 CALM      29.40R
BOISE          CLOUDY    33  31  92 SW3       29.39R
SPOKANE        CLOUDY    34  29  82 CALM      29.32R
$$

REGIONAL REPORTS...ALBERTA

CITY           SKY/WX    TMP DP  RH WIND       PRES   REMARKS
EDMONTON         N/A     10   7  85 CALM      29.45R VSB 1/8
CALGARY        CLEAR     16  10  79 VRB2      29.38R
LETHBRIDGE     CLEAR     16  12  86 SW6       29.37R WCI   7
MEDICINE HAT   PTCLDY    19  18  93 CALM      29.38R
WATERTON GATE    N/A     16  12  86 SW7         N/A  WCI   6
CARDSTON         N/A     16  10  79 CALM        N/A
MILK RIVER       N/A     16  12  86 NW6         N/A  WCI   7
$$

REGIONAL REPORTS...SASKATCHEWAN

CITY           SKY/WX    TMP DP  RH WIND       PRES   REMARKS
SWIFT CURRENT  FRZ RAIN  23  23 100 W8        29.30R VSB 1/4 WCI  14
REGINA         FOG       18  18 100 S2        29.29S VSB 3/4
SASKATOON      CLOUDY    27  27 100 NE12      29.36R WCI  16
CYPRESS HILLS    N/A     27  16  63 NW6         N/A  WCI  20
VAL MARIE        N/A      9   5  85 SW5         N/A
ROCKGLEN         N/A     25  21  86 W10         N/A  WCI  15
ASSINIBOIA       N/A     10   9  92 SW1         N/A
$$




USA.gov is the U.S. government's official web portal to all federal, state and local government web resources and services.